Regional Weather Roundup
Issued by NWS

Home | Current Version | Previous Version | Graphics & Text | Print | Product List | Glossary Off
Versions: 1 2 3 4 5 6 7 8 9 10 11 12 13 14 15 16 17 18 19 20 21 22 23 24 25 26 27 28 29 30 31 32 33 34 35 36 37 38 39 40 41 42 43 44 45 46 47 48 49 50

000
ASUS45 KPSR 260800
RWRAZ

PRELIMINARY ARIZONA REGIONAL HOURLY WEATHER ROUNDUP
NATIONAL WEATHER SERVICE PHOENIX AZ
100 AM MST WED NOV 26 2014

NOTE: FAIR INDICATES FEW OR NO CLOUDS BELOW 12,000 FEET WITH NO
SIGNIFICANT WEATHER AND/OR OBSTRUCTIONS TO VISIBILITY.

AZZ001>003-036-260900-
NORTHWEST ARIZONA

CITY           SKY/WX    TMP DP  RH WIND       PRES   REMARKS
KINGMAN        CLEAR     38   8  29 E8        30.38F WCI  32
$$

AZZ004>008-015-016-018-260900-
NORTH CENTRAL ARIZONA

CITY           SKY/WX    TMP DP  RH WIND       PRES   REMARKS
GRAND CANYON   PTCLDY    20   6  55 CALM      30.44S
PRESCOTT       CLEAR     41   8  25 CALM      30.39S
FLAGSTAFF      NOT AVBL
PAYSON         CLEAR     37   1  22 CALM      30.37F
PAGE           CLEAR     40  10  29 CALM      30.37F HAZE
$$

AZZ009>014-017-260900-
NORTHEAST ARIZONA

CITY           SKY/WX    TMP DP  RH WIND       PRES   REMARKS
WINSLOW        NOT AVBL
SAINT JOHNS    CLEAR     31   5  33 SE5       30.38S WCI  26
SHOW LOW       CLEAR     32   1  27 E7        30.42S WCI  26
$$

AZZ023-260900-
GREATER PHOENIX AREA

CITY           SKY/WX    TMP DP  RH WIND       PRES   REMARKS
PHOENIX        CLEAR     51  18  27 E6        30.28F
BUCKEYE          N/A     41   5  22 N5        30.31R
DEER VALLEY    CLEAR     44   8  23 NW3       30.29F
SCOTTSDALE     CLEAR     45  22  40 CALM      30.30F
$$

AZZ027-028-260900-
SOUTHWEST MARICOPA COUNTY AND PINAL COUNTY

CITY           SKY/WX    TMP DP  RH WIND       PRES   REMARKS
CASA GRANDE    CLEAR     43   5  21 CALM      30.30F
$$

AZZ503-504-507>509-260900-
SOUTHEAST ARIZONA

CITY           SKY/WX    TMP DP  RH WIND       PRES   REMARKS
TUCSON         CLEAR     39   2  21 S6        30.35S WCI  35
DAVIS-MONTHAN  CLEAR     40   4  22 SE7       30.33S WCI  35
NOGALES        CLEAR     36   3  25 E6        30.34R WCI  31
SIERRA VISTA   CLEAR     37   2  22 S3        30.35R
SAFFORD        CLEAR     35   2  24 S6        30.33S WCI  30
$$

AZZ020-021-025-026-031-260900-
SOUTHWEST ARIZONA

CITY           SKY/WX    TMP DP  RH WIND       PRES   REMARKS
YUMA           NOT AVBL
$$

CAZ031-033-041-043-047-048-061-260900-
SOUTHERN CALIFORNIA

CITY           SKY/WX    TMP DP  RH WIND       PRES   REMARKS
DOWNTOWN L.A.  CLEAR     57  35  43 CALM      30.26F
L.A. AIRPORT   CLEAR     62  32  32 SE6       30.27F
SAN DIEGO      CLEAR     59  30  33 CALM      30.27F
BURBANK        CLEAR     53  24  32 CALM      30.27F
ONTARIO        CLEAR     56  26  31 NE5       30.29F
RIVERSIDE      CLEAR     51  27  39 E3        30.29F
PALM SPRINGS   CLEAR     55  18  23 VRB3      30.31F
EL CENTRO NAS  CLEAR     48  22  35 W6        30.29S
IMPERIAL       CLEAR     48  24  39 W3        30.29S
BLYTHE         CLEAR     50  12  21 CALM      30.30S
$$

NVZ020-UTZ003-260900-
SOUTHERN NEVADA-UTAH

CITY           SKY/WX    TMP DP  RH WIND       PRES   REMARKS
LAS VEGAS      NOT AVBL
SALT LAKE CITY MOCLDY    42  29  59 SE12      30.31S
$$

NMZ009-TXZ055-260900-
NEW MEXICO-WEST TEXAS

CITY           SKY/WX    TMP DP  RH WIND       PRES   REMARKS
ALBUQUERQUE    PTCLDY    40   8  26 NW7       30.32R
EL PASO        CLEAR     38  11  32 N7        30.28S WCI  33
$$


........................KEY........................
SKY/WX - SKY CONDITION/WEATHER
TMP    - TEMPERATURE IN FAHRENHEIT
DP     - DEW POINT IN FAHRENHEIT
RH     - RELATIVE HUMIDITY IN PERCENT
WIND   - DIRECTION AND SPEED IN MILES PER HOUR (MPH)
VRB    - VARIABLE WIND DIRECTION
PRES   - MEAN SEA LEVEL PRESSURE IN INCHES OF MERCURY
         F - FALLING PRESSURE   R - RISING PRESSURE
         S - STEADY PRESSURE
VSB    - VISIBILITY IN MILES
HX     - HEAT INDEX IN FAHRENHEIT
WCI    - WIND CHILL INDEX IN FAHRENHEIT
TC     - TEMPERATURE IN CELSIUS WHICH IS ALSO KNOWN AS
         TEMPERATURE IN CENTIGRADE
AFB    - AIR FORCE BASE
         LUKE AFB IS LUKE AIR FORCE BASE
         DAVIS-MONTHAN IS DAVIS-MONTHAN AIR FORCE BASE
NAS    - NAVAL AIR STATION
         EL CENTRO NAS IS EL CENTRO NAVAL AIR STATION
N/A    - NOT AVAILABLE


USA.gov is the U.S. government's official web portal to all federal, state and local government web resources and services.